Retour au catalogue

DELTA 1 DEB

ActifSSO
NORAD 7018·DEBRIS·🇺🇸 United States

Lancé Nov 6, 1973 depuis Vandenberg Space Force Base

Loading…

Prochains Passages (prochaines 24 heures)

TLE

FraisSource: Space-Track

Époque: Sep 14, 2026, 12:43 UTC

1 07018U 73086J   26257.52999845 -.00000030  00000-0  12619-3 0  9999
2 07018 102.3177 279.3248 0011579 281.6613 232.8533 12.39213247389509

Suivez DELTA 1 DEB en temps réel avec AllMySat

Download on the App Store